This is the latest recevied weather packets stored in our database for station/object KJ7HSW. If no packets are shown the sender has not sent any weather packets the latest 1 day(s).
| Time | Temp. | Humidity | Pressure | Rain* | Wind** | Luminosity | Snow |
|---|---|---|---|---|---|---|---|
| 1778028277 | 20° C | 65% | 1013.3 hPa | 0 mm | 0.89 m/s, 79° | 59 W/m² | - |
| 1778027972 | 20.56° C | 64% | 1013.2 hPa | 0 mm | 1.34 m/s, 239° | 69 W/m² | - |
| 1778027669 | 20.56° C | 64% | 1013.4 hPa | 0 mm | 0.89 m/s, 189° | 72 W/m² | - |
| 1778027366 | 20.56° C | 63% | 1013.4 hPa | 0 mm | 1.34 m/s, 239° | 73 W/m² | - |
| 1778027062 | 20.56° C | 63% | 1013.3 hPa | 0 mm | 1.34 m/s, 331° | 124 W/m² | - |
| 1778026757 | 21.11° C | 62% | 1013.3 hPa | 0 mm | 3.58 m/s, 249° | 83 W/m² | - |
| 1778026455 | 21.67° C | 63% | 1013.3 hPa | 0 mm | 1.34 m/s, 239° | 117 W/m² | - |
| 1778026152 | 21.67° C | 60% | 1013.3 hPa | 0 mm | 2.24 m/s, 243° | 69 W/m² | - |
| 1778025849 | 21.67° C | 61% | 1013.2 hPa | 0 mm | 1.34 m/s, 264° | 76 W/m² | - |
| 1778025546 | 21.67° C | 60% | 1013.4 hPa | 0 mm | 0.89 m/s, 215° | 95 W/m² | - |
| 1778025244 | 22.22° C | 58% | 1013.3 hPa | 0 mm | 0.45 m/s, 319° | 105 W/m² | - |
| 1778024940 | 22.78° C | 58% | 1013.3 hPa | 0 mm | 1.34 m/s, 206° | 318 W/m² | - |
| 1778024638 | 22.78° C | 57% | 1013.5 hPa | 0 mm | 1.34 m/s, 268° | 460 W/m² | - |
| 1778024334 | 22.78° C | 57% | 1013.4 hPa | 0 mm | 2.24 m/s, 198° | 472 W/m² | - |
| 1778024033 | 22.78° C | 58% | 1013.5 hPa | 0 mm | 1.34 m/s, 259° | 493 W/m² | - |
| 1778023730 | 22.78° C | 58% | 1013.6 hPa | 0 mm | 2.68 m/s, 295° | 512 W/m² | - |
| 1778023428 | 23.33° C | 56% | 1013.8 hPa | 0 mm | 1.79 m/s, 269° | 529 W/m² | - |
| 1778023124 | 22.78° C | 57% | 1013.8 hPa | 0 mm | 1.34 m/s, 6° | 545 W/m² | - |
| 1778022821 | 23.33° C | 55% | 1013.7 hPa | 0 mm | 3.58 m/s, 228° | 559 W/m² | - |
| 1778022519 | 23.33° C | 56% | 1013.7 hPa | 0 mm | 0.89 m/s, 293° | 569 W/m² | - |
| 1778022216 | 22.78° C | 56% | 1013.7 hPa | 0 mm | 1.79 m/s, 249° | 585 W/m² | - |
| 1778021913 | 23.89° C | 54% | 1013.9 hPa | 0 mm | 1.34 m/s, 259° | 599 W/m² | - |
| 1778021610 | 23.89° C | 54% | 1014 hPa | 0 mm | 2.24 m/s, 237° | 613 W/m² | - |
| 1778021305 | 23.89° C | 53% | 1013.9 hPa | 0 mm | 0.89 m/s, 208° | 625 W/m² | - |
| 1778021004 | 23.89° C | 54% | 1014 hPa | 0 mm | 0.89 m/s, 230° | 640 W/m² | - |
* Rain latest hour (hover to see other rain measurements)
** Current wind speed in m/s (hover to see current wind gust speed)